Weather History for KNUW - March, 2014

Change the Weather History Date:

Thursday, March 13, 2014

  Actual Average Record
Temperature  
Mean Temperature 45 °F -  
Max Temperature 53 °F 48 °F 60 °F (2015)
Min Temperature 37 °F 37 °F 28 °F (2009)
Degree Days  
Heating Degree Days 20    
Moisture  
Dew Point 40 °F    
Average Humidity 76    
Maximum Humidity 89    
Minimum Humidity 61    
Precipitation  
Precipitation 0.00 in - - ()
Sea Level Pressure  
Sea Level Pressure 30.12 in    
Wind  
Wind Speed 4 mph (ENE)    
Max Wind Speed 9 mph    
Max Gust Speed -    
Visibility 10 miles    
Events Fog , Rain    
Averages and records for this station are not official NWS values.
T = Trace of Precipitation, MM = Missing Value Source: NWS Daily Summary

Daily Weather History Graph

Daily Weather History Graph

Search for Another Location

Airport or City:

Trip Planner

Search our weather history database for the weather conditions in past years. The results will help you decide how hot, cold, wet, or windy it might be!

Date:

Astronomy

Mar. 13, 2014 Rise Set
Actual Time 7:27 AM PDT 7:13 PM PDT
Civil Twilight 6:56 AM PDT 7:44 PM PDT
Nautical Twilight 6:20 AM PDT 8:20 PM PDT
Astronomical Twilight 5:43 AM PDT 8:57 PM PDT
Moon 4:35 PM PDT (3/13) 5:48 AM PDT (3/13)
Length of Visible Light 12h 47m
Length of Day
11h 45m
Waxing Gibbous, 92% of the Moon is Illuminated
Mar 13
Waxing Gibbous
Mar 16
Full
Mar 23
Last Quarter
Mar 30
New
Apr 7
First Quarter

Hourly Weather History & Observations

Time (PDT) Temp. Windchill Dew Point Humidity Pressure Visibility Wind Dir Wind Speed Gust Speed Precip Events Conditions
12:56 AM 46.0 °F 43.9 °F 39.9 °F 79% 30.20 in 10.0 mi NNW 4.6 mph - N/A   Mostly Cloudy
1:56 AM 46.0 °F 41.9 °F 39.0 °F 76% 30.21 in 10.0 mi NW 8.1 mph - N/A   Scattered Clouds
2:56 AM 43.0 °F - 39.0 °F 86% 30.21 in 10.0 mi Calm Calm - N/A   Scattered Clouds
3:56 AM 41.0 °F 39.0 °F 36.0 °F 82% 30.20 in 10.0 mi ESE 3.5 mph - N/A   Mostly Cloudy
4:56 AM 39.9 °F 36.7 °F 36.0 °F 86% 30.19 in 10.0 mi East 4.6 mph - N/A   Scattered Clouds
5:56 AM 37.0 °F 34.5 °F 34.0 °F 89% 30.18 in 7.0 mi East 3.5 mph - N/A   Scattered Clouds
6:56 AM 37.9 °F - 33.1 °F 83% 30.18 in 10.0 mi Calm Calm - N/A Fog Patches of Fog
7:56 AM 37.9 °F 34.4 °F 34.0 °F 86% 30.17 in 10.0 mi East 4.6 mph - N/A Fog Patches of Fog
8:56 AM 44.1 °F - 39.9 °F 85% 30.18 in 10.0 mi Calm Calm - N/A   Overcast
9:56 AM 48.9 °F - 42.1 °F 77% 30.18 in 10.0 mi ESE 8.1 mph - N/A   Overcast
10:56 AM 50.0 °F - 39.9 °F 68% 30.19 in 10.0 mi Calm Calm - N/A   Overcast
11:56 AM 52.0 °F - 41.0 °F 66% 30.16 in 10.0 mi SE 4.6 mph - N/A   Overcast
12:56 PM 51.1 °F - 41.0 °F 68% 30.14 in 10.0 mi WNW 8.1 mph - N/A   Overcast
1:56 PM 52.0 °F - 42.1 °F 69% 30.12 in 10.0 mi WNW 8.1 mph - N/A   Mostly Cloudy
2:56 PM 53.1 °F - 43.0 °F 69% 30.11 in 10.0 mi WNW 8.1 mph - N/A   Mostly Cloudy
3:56 PM 51.1 °F - 41.0 °F 68% 30.10 in 10.0 mi NW 4.6 mph - N/A   Overcast
4:56 PM 52.0 °F - 42.1 °F 69% 30.08 in 10.0 mi Calm Calm - N/A   Overcast
5:56 PM 51.1 °F - 41.0 °F 68% 30.07 in 10.0 mi West 4.6 mph - N/A   Overcast
6:56 PM 50.0 °F - 42.1 °F 74% 30.04 in 10.0 mi Calm Calm - N/A   Overcast
7:56 PM 48.0 °F - 42.1 °F 80% 30.02 in 10.0 mi NW 3.5 mph - N/A   Overcast
8:56 PM 48.0 °F - 42.1 °F 80% 30.01 in 10.0 mi North 3.5 mph - N/A   Overcast
9:56 PM 48.0 °F - 42.1 °F 80% 30.00 in 10.0 mi ESE 5.8 mph - N/A   Overcast
10:42 PM 48.9 °F - 43.0 °F 80% 29.98 in 10.0 mi East 6.9 mph - 0.00 in Rain Light Rain
10:56 PM 48.9 °F - 43.0 °F 80% 29.99 in 10.0 mi ESE 6.9 mph - 0.00 in Rain Light Rain
11:56 PM 53.1 °F - 39.9 °F 61% 29.98 in 10.0 mi SE 9.2 mph - 0.00 in Rain Light Rain